Regional Weather Roundup
Issued by NWS Little Rock, AR

Home | Current Version | Previous Version | Text Only | Print | Product List | Glossary Off
Versions: 1 2 3 4 5 6 7 8 9 10 11 12 13 14 15 16 17 18 19 20 21 22 23 24 25 26 27 28 29 30 31 32 33 34 35 36 37 38 39 40 41 42 43 44 45 46 47 48 49 50

000
ASUS44 KLZK 012305
RWRLZK

WEATHER ROUNDUP FOR ARKANSAS
NATIONAL WEATHER SERVICE LITTLE ROCK AR
600 PM CDT WED JUL 01 2015

NOTE: "FAIR" INDICATES FEW OR NO CLOUDS BELOW 12,000 FEET WITH NO
SIGNIFICANT WEATHER AND/OR OBSTRUCTIONS TO VISIBILITY.

ARZ001-003-010-029-020000-
NORTHWEST ARKANSAS

CITY           SKY/WX    TMP DP  RH WIND       PRES   REMARKS
FAYETTEVILLE   MOSUNNY   85  72  65 S9        29.92S HX  91
FORT SMITH     MOSUNNY   93  67  42 SW14      29.87F HX  96
HARRISON       CLOUDY    80  73  79 S9        29.90F
BENTONVILLE    PTSUNNY   84  72  65 S8        29.91F HX  89
ROGERS         PTSUNNY   85  72  65 S14       29.91F HX  91
SILOAM SPGS    PTSUNNY   88  70  55 SW14      29.91F HX  92
HIGHFILL       PTSUNNY   86  74  67 S8        29.90F HX  94
SPRINGDALE     MOSUNNY   86  72  62 S16       29.93F HX  92
$$

ARZ004-005-016-020000-
NORTH CENTRAL ARKANSAS

CITY           SKY/WX    TMP DP  RH WIND       PRES   REMARKS
BATESVILLE     PTSUNNY   84  73  70 S7        29.89S HX  91
FLIPPIN          N/A     81  70  69 SW6       29.87F
MTN HOME       CLOUDY    80  71  74 SW6       29.88F
$$

ARZ040-041-020000-
WEST CENTRAL ARKANSAS

CITY           SKY/WX    TMP DP  RH WIND       PRES   REMARKS
MENA           MOSUNNY   88  72  58 SW5       29.96S HX  94
MOUNT IDA      SUNNY     88  71  57 SW6       29.93F HX  94
$$

ARZ009-017-025-026-028-020000-
NORTHEAST ARKANSAS

CITY           SKY/WX    TMP DP  RH WIND       PRES   REMARKS
JONESBORO      PTSUNNY   85  74  69 SW12      29.89F HX  92
NEWPORT        MOSUNNY   89  72  57 SW14G24   29.89F HX  96
WALNUT RIDGE   MOSUNNY   84  72  65 SW14      29.88F HX  89
BLYTHEVILLE    PTSUNNY   86  73  65 SW15G22   29.90S HX  93
$$

ARZ022-023-033-042-044-020000-
CENTRAL ARKANSAS

CITY           SKY/WX    TMP DP  RH WIND       PRES   REMARKS
LITTLE ROCK    CLOUDY    90  71  53 SW15G22   29.92S HX  96
N LITTLE ROCK  PTSUNNY   88  75  65 SW8       29.92S HX  98
JACKSONVILLE   CLOUDY    90  73  57 S7        29.91F HX  97
SEARCY         CLOUDY    84  75  74 S7        29.92F HX  92
HOT SPRINGS    MOSUNNY   88  71  57 SW9       29.95S HX  94
RUSSELLVILLE   MOSUNNY   91  71  51 VRB7      29.89F HX  97
CLINTON        FAIR      86  77  74 S3        29.90F HX  97
$$

ARZ036-020000-
EAST ARKANSAS

CITY           SKY/WX    TMP DP  RH WIND       PRES   REMARKS
WEST MEMPHIS   PTSUNNY   85  76  74 S8        29.90F HX  94
$$

ARZ050-053-066-070-073-020000-
SOUTHWEST ARKANSAS

CITY           SKY/WX    TMP DP  RH WIND       PRES   REMARKS
ARKADELPHIA    FAIR      91  74  57 S8        29.95S HX 100
CAMDEN         SUNNY     90  68  48 MISG      29.95F HX  93
TEXARKANA      MOSUNNY   91  72  53 SW13      29.95S HX  98
EL DORADO      MOSUNNY   88  72  58 SW8       29.98R HX  94
DE QUEEN       MOSUNNY   89  73  59 SW8       29.92S HX  97
$$

ARZ056-057-069-020000-
SOUTHEAST ARKANSAS

CITY           SKY/WX    TMP DP  RH WIND       PRES   REMARKS
PINE BLUFF     MOSUNNY   88  72  58 SW9       29.94S HX  94
STUTTGART      MOSUNNY   88  72  58 MISG      29.92F HX  94
MONTICELLO     MOSUNNY   89  72  56 SW9       29.96S HX  96

$$




USA.gov is the U.S. government's official web portal to all federal, state and local government web resources and services.